パンスターズ彗星

C/2014 S2 ( PanSTARRS )

English version
Home page
Updated on January 17, 2017

---------------------------------------------------------------------

・ プロフィール

発見日 2014年9月22日
発見光度 20.9等
発見者 Pan-STARRS 1 telescope (Haleakala)

・ 写真集

・ 軌道要素

Epoch 2015 Dec. 4.0 TT = JDT 2457360.5
T 2015 Dec.  9.79882 TT                                 MPCW
q   2.1006779            (2000.0)            P               Q
z  +0.0058738      Peri.   87.80729     -0.02252481     -0.99155659
 +/-0.0000003      Node     8.12230     +0.03398761     -0.12842149
e   0.9876610      Incl.   64.67037     +0.99916839     -0.01798484
From 2440 observations 2014 Sept. 2-2016 July 16, mean residual 0".7.

・ 星図

・ 光度変化

        m1 =   6.5 + 5 logΔ + 15.0 log r          [    ,-129]  (              〜2015年 8月 2日)
        m1 = -12   + 5 logΔ + 60   log r          [-129,   0]  (2015年 8月 2日〜2015年12月 9日)
        m1 =   0.8 + 5 logΔ + 20.0 log r(t - 30)  [   0,    ]  (2015年12月 9日〜              )

---------------------------------------------------------------------

軌道要素はM.P.E.C. 2016-V116に掲載されたものです。
星図はステラナビゲータ Ver.8 (アストロアーツ) で作成したものです。
光度グラフはComet for Windowsで作成したものです。

---------------------------------------------------------------------

Copyright(C) Seiichi Yoshida (comet@aerith.net). All rights reserved.